When you browse on this site, cookies collect data to enhance your experience and personalize the content and advertising you see.
Visit our Privacy Policy to learn more. By continuing to use the site, you agree to this use of cookies and data.
  • In Latvia
  • List of Countries
  • For 7 days
  • Water Temperature
  • Satellite Maps
  • Weather Map
  • Weather Widgets
  • user-avatar
    Login

    Hourly Weather Selidovo

    Today, 13 December, Thursday

    Time Temperature Precipitation Wind Pressure Humidity
    00:00 -1°C° 0 mm 4 mps 743 mmHg 85%
    01:00 -2°C° 0 mm 4 mps 743 mmHg 86%
    02:00 -2°C° 0 mm 4 mps 743 mmHg 88%
    03:00 -2°C° 0 mm 4 mps 744 mmHg 88%
    04:00 -2°C° 0 mm 4 mps 744 mmHg 88%
    05:00 -2°C° 0 mm 4 mps 745 mmHg 87%
    06:00 -2°C° 0 mm 4 mps 745 mmHg 87%
    07:00 -2°C° 0 mm 4 mps 745 mmHg 88%
    08:00 -1°C° 0 mm 3 mps 746 mmHg 88%
    09:00 -2°C° 0 mm 4 mps 746 mmHg 85%
    10:00 -1°C° 0 mm 4 mps 747 mmHg 82%
    11:00 0°C° 0 mm 4 mps 747 mmHg 80%
    12:00 0°C° 0 mm 4 mps 747 mmHg 78%
    13:00 0°C° 0 mm 4 mps 747 mmHg 77%
    14:00 0°C° 0 mm 4 mps 748 mmHg 76%
    15:00 +1°C° 0 mm 3 mps 748 mmHg 77%
    16:00 +1°C° 0 mm 3 mps 748 mmHg 78%
    17:00 +1°C° 0 mm 2 mps 749 mmHg 80%
    18:00 +1°C° 0 mm 2 mps 749 mmHg 81%
    19:00 +1°C° 0 mm 2 mps 749 mmHg 82%
    20:00 +1°C° 0 mm 2 mps 749 mmHg 83%
    21:00 -1°C° 0 mm 2 mps 749 mmHg 84%
    22:00 -1°C° 0 mm 2 mps 749 mmHg 85%
    23:00 -1°C° 0 mm 2 mps 749 mmHg 86%

    Tomorrow, 14 December, Friday

    Time Temperature Precipitation Wind Pressure Humidity
    00:00 -1°C° 0 mm 3 mps 750 mmHg 87%
    01:00 -1°C° 0 mm 3 mps 750 mmHg 87%
    02:00 -1°C° 0 mm 3 mps 750 mmHg 88%
    03:00 -1°C° 0 mm 3 mps 750 mmHg 89%
    04:00 -2°C° 0 mm 2 mps 750 mmHg 90%
    05:00 -2°C° 0 mm 2 mps 750 mmHg 91%
    06:00 -2°C° 0 mm 2 mps 751 mmHg 91%
    07:00 -1°C° 0 mm 2 mps 751 mmHg 91%
    08:00 -1°C° 0 mm 2 mps 751 mmHg 91%
    09:00 +1°C° 0 mm 2 mps 751 mmHg 87%
    10:00 +3°C° 0 mm 1 mps 752 mmHg 83%
    11:00 +4°C° 0 mm 1 mps 752 mmHg 78%
    12:00 +4°C° 0 mm 1 mps 752 mmHg 78%
    13:00 +4°C° 0 mm 1 mps 752 mmHg 78%
    14:00 +4°C° 0 mm 1 mps 752 mmHg 78%
    15:00 +3°C° 0 mm 1 mps 752 mmHg 80%
    16:00 +2°C° 0 mm 1 mps 753 mmHg 82%
    17:00 +2°C° 0 mm 1 mps 753 mmHg 84%
    18:00 +1°C° 0 mm 1 mps 753 mmHg 85%
    19:00 +1°C° 0 mm 1 mps 753 mmHg 85%
    20:00 +1°C° 0 mm 1 mps 753 mmHg 86%
    21:00 +1°C° 0 mm 1 mps 754 mmHg 86%
    22:00 +1°C° 0 mm 1 mps 754 mmHg 86%
    23:00 +1°C° 0 mm 1 mps 754 mmHg 87%

    Day after tomorrow, 15 December, Saturday

    Time Temperature Precipitation Wind Pressure Humidity
    00:00 +1°C° 0 mm 1 mps 754 mmHg 87%
    01:00 +1°C° 0 mm 1 mps 754 mmHg 87%
    02:00 0°C° 0 mm 1 mps 755 mmHg 87%
    03:00 -1°C° 0 mm 0 mps 755 mmHg 88%
    04:00 -1°C° 0 mm 0 mps 755 mmHg 88%
    05:00 -1°C° 0 mm 0 mps 755 mmHg 88%
    06:00 -1°C° 0 mm 0 mps 755 mmHg 88%
    07:00 -1°C° 0 mm 0 mps 755 mmHg 88%
    08:00 -1°C° 0 mm 0 mps 756 mmHg 88%
    09:00 0°C° 0 mm 0 mps 756 mmHg 83%
    10:00 +1°C° 0 mm 0 mps 756 mmHg 79%
    11:00 +2°C° 0 mm 0 mps 756 mmHg 74%
    12:00 +2°C° 0 mm 0 mps 756 mmHg 75%
    13:00 +2°C° 0 mm 0 mps 756 mmHg 75%
    14:00 +3°C° 0 mm 1 mps 756 mmHg 76%
    15:00 +2°C° 0 mm 1 mps 757 mmHg 79%
    16:00 +2°C° 0 mm 1 mps 757 mmHg 83%
    17:00 -1°C° 0 mm 2 mps 757 mmHg 86%
    18:00 -2°C° 0 mm 2 mps 757 mmHg 87%
    19:00 -2°C° 0 mm 2 mps 757 mmHg 89%
    20:00 -2°C° 0 mm 2 mps 757 mmHg 90%
    21:00 -2°C° 0 mm 2 mps 757 mmHg 90%
    22:00 -4°C° 0 mm 3 mps 758 mmHg 90%
    23:00 -4°C° 0 mm 3 mps 758 mmHg 91%

    16 December, Sunday

    Time Temperature Precipitation Wind Pressure Humidity
    00:00 -4°C° 0 mm 3 mps 758 mmHg 90%
    01:00 -4°C° 0 mm 3 mps 758 mmHg 89%
    02:00 -4°C° 0 mm 3 mps 758 mmHg 88%
    03:00 -4°C° 0 mm 3 mps 758 mmHg 88%
    04:00 -5°C° 0 mm 3 mps 758 mmHg 87%
    05:00 -5°C° 0 mm 4 mps 758 mmHg 86%
    06:00 -5°C° 0 mm 4 mps 758 mmHg 86%
    07:00 -5°C° 0 mm 4 mps 758 mmHg 85%
    08:00 -5°C° 0 mm 4 mps 758 mmHg 85%
    09:00 -5°C° 0 mm 5 mps 758 mmHg 82%
    10:00 -5°C° 0 mm 5 mps 758 mmHg 79%
    11:00 -4°C° 0 mm 5 mps 757 mmHg 76%
    12:00 -4°C° 0 mm 5 mps 757 mmHg 76%
    13:00 -4°C° 0 mm 5 mps 757 mmHg 76%
    14:00 -4°C° 0 mm 5 mps 757 mmHg 76%
    15:00 -4°C° 0 mm 5 mps 757 mmHg 78%
    16:00 -5°C° 0 mm 5 mps 757 mmHg 80%
    17:00 -5°C° 0 mm 5 mps 756 mmHg 82%
    18:00 -5°C° 0 mm 5 mps 756 mmHg 82%
    19:00 -5°C° 0 mm 6 mps 756 mmHg 82%
    20:00 -6°C° 0 mm 6 mps 756 mmHg 83%
    21:00 -6°C° 0 mm 6 mps 756 mmHg 82%
    22:00 -6°C° 0 mm 6 mps 756 mmHg 82%
    23:00 -6°C° 0 mm 6 mps 756 mmHg 82%

    17 December, Monday

    Time Temperature Precipitation Wind Pressure Humidity
    00:00 -6°C° 0 mm 6 mps 756 mmHg 81%
    01:00 -6°C° 0 mm 6 mps 756 mmHg 80%
    02:00 -6°C° 0 mm 6 mps 755 mmHg 78%
    03:00 -6°C° 0 mm 6 mps 755 mmHg 77%
    04:00 -8°C° 0 mm 6 mps 755 mmHg 75%
    05:00 -8°C° 0 mm 6 mps 755 mmHg 73%
    06:00 -8°C° 0 mm 6 mps 755 mmHg 70%
    07:00 -8°C° 0 mm 6 mps 755 mmHg 67%
    08:00 -8°C° 0 mm 6 mps 755 mmHg 64%
    09:00 -6°C° 0 mm 6 mps 755 mmHg 61%
    10:00 -7°C° 0 mm 7 mps 755 mmHg 58%
    11:00 -6°C° 0 mm 7 mps 755 mmHg 54%
    12:00 -6°C° 0 mm 7 mps 754 mmHg 54%
    13:00 -6°C° 0 mm 7 mps 754 mmHg 54%
    14:00 -5°C° 0 mm 6 mps 754 mmHg 53%
    15:00 -5°C° 0 mm 6 mps 754 mmHg 55%
    16:00 -6°C° 0 mm 6 mps 754 mmHg 57%
    17:00 -8°C° 0 mm 6 mps 754 mmHg 59%
    18:00 -8°C° 0 mm 6 mps 754 mmHg 60%
    19:00 -8°C° 0 mm 6 mps 755 mmHg 62%
    20:00 -8°C° 0 mm 6 mps 755 mmHg 64%
    21:00 -9°C° 0 mm 6 mps 755 mmHg 66%
    22:00 -9°C° 0 mm 6 mps 755 mmHg 69%
    23:00 -9°C° 0 mm 6 mps 755 mmHg 71%

    18 December, Tuesday

    Time Temperature Precipitation Wind Pressure Humidity
    00:00 -9°C° 0 mm 6 mps 755 mmHg 72%
    01:00 -9°C° 0 mm 6 mps 755 mmHg 74%
    02:00 -10°C° 0 mm 6 mps 755 mmHg 75%
    03:00 -10°C° 0 mm 6 mps 755 mmHg 76%
    04:00 -10°C° 0 mm 6 mps 755 mmHg 77%
    05:00 -10°C° 0 mm 6 mps 754 mmHg 78%
    06:00 -9°C° 0 mm 6 mps 755 mmHg 79%
    07:00 -9°C° 0 mm 6 mps 755 mmHg 79%
    08:00 -9°C° 0 mm 6 mps 755 mmHg 79%
    09:00 -9°C° 0 mm 6 mps 755 mmHg 77%
    10:00 -8°C° 0 mm 6 mps 755 mmHg 75%
    11:00 -8°C° 0 mm 6 mps 755 mmHg 73%
    12:00 -8°C° 0 mm 6 mps 755 mmHg 73%
    13:00 -8°C° 0 mm 6 mps 754 mmHg 73%
    14:00 -6°C° 0 mm 6 mps 754 mmHg 73%
    15:00 -6°C° 0 mm 6 mps 754 mmHg 74%
    16:00 -8°C° 0 mm 6 mps 754 mmHg 76%
    17:00 -8°C° 0 mm 6 mps 754 mmHg 77%
    18:00 -8°C° 0 mm 6 mps 754 mmHg 78%
    19:00 -8°C° 0 mm 6 mps 754 mmHg 78%
    20:00 -6°C° 0 mm 6 mps 754 mmHg 79%
    21:00 -6°C° 0 mm 6 mps 754 mmHg 80%
    22:00 -6°C° 0 mm 5 mps 754 mmHg 80%
    23:00 -6°C° 0 mm 5 mps 754 mmHg 81%
    Show more